Theta_e
326 326 325 325 325 325 326 326 326 326 326 325 325 325 325 325 325 325 325 325 325 325 325 325 325 324 324 325 324 324 324 324 323 323 323 323 323 323 323 323 322 322
326 326 325 325 325 325 325 326 326 325 325 325 325 325 325 325 325 325 326 325 325 326 325 325 325 325 325 325 325 324 324 324 323 323 323 323 323 323 323 323 323 323
325 325 325 325 325 325 325 325 326 325 325 325 325 325 325 326 326 325 325 325 325 326 326 325 325 325 325 325 325 324 324 324 324 324 324 324 324 323 323 323 324 324
326 325 325 325 325 325 325 325 325 325 325 325 326 326 326 326 326 325 325 325 325 325 326 326 325 325 325 325 325 324 324 324 324 324 324 324 324 324 324 324 324 324
326 326 326 325 326 326 326 326 325 325 325 325 325 326 326 326 325 325 325 325 325 325 325 326 325 325 325 326 325 325 325 325 324 325 325 324 324 324 324 324 324 324
326 326 326 326 326 326 326 326 325 325 325 325 325 326 326 326 325 325 325 325 325 325 326 326 325 326 326 327 327 326 326 325 325 325 325 324 324 324 324 324 324 325
326 326 326 326 326 326 326 326 326 326 325 326 326 326 325 325 325 325 325 325 325 325 326 326 326 327 327 327 327 326 326 325 325 324 324 324 323 323 323 324 324 324
326 326 326 326 326 326 326 326 326 326 326 326 326 326 325 325 325 325 325 325 325 326 326 326 327 327 327 327 327 326 326 325 324 324 324 323 323 323 323 324 324 323
325 325 326 325 325 326 326 326 326 326 326 326 326 326 325 325 326 325 325 325 326 326 326 326 326 327 327 326 326 326 325 325 325 324 324 323 323 323 323 323 323 323
324 324 324 324 325 325 325 325 325 326 326 325 325 325 325 325 325 324 325 326 326 326 326 326 326 326 326 326 326 326 325 325 324 324 323 323 323 322 322 322 322 321
322 322 323 323 323 324 324 324 324 325 325 325 325 325 324 324 324 323 324 325 325 325 325 325 326 325 325 326 325 325 325 324 323 322 321 322 322 321 320 320 320 320
320 321 321 322 322 322 323 323 323 323 323 324 324 323 323 323 322 323 323 324 324 325 325 325 325 325 324 325 324 325 324 322 321 321 322 321 320 320 319 319 319 319
317 318 319 320 320 321 322 322 322 322 322 322 322 322 322 321 321 322 322 323 323 323 324 324 325 324 323 323 324 324 323 321 320 321 322 319 317 318 320 320 320 319
313 314 315 317 318 319 320 320 320 320 320 320 320 320 320 320 320 321 321 321 322 322 323 323 324 323 323 323 324 322 321 321 321 321 321 319 318 318 318 319 319 319
310 311 312 314 315 317 318 318 318 318 318 318 318 318 318 318 318 319 320 320 321 321 321 322 323 323 322 323 322 320 320 321 320 319 319 318 318 318 317 317 317 318
309 309 310 311 312 314 316 316 316 315 315 315 316 316 317 317 317 318 319 319 320 320 321 321 321 321 321 322 321 321 321 321 319 318 317 316 317 317 317 317 316 316
308 308 308 309 310 311 313 314 314 314 314 314 314 314 315 316 316 317 318 318 318 319 319 319 319 320 320 320 319 320 319 318 317 316 315 315 317 317 316 315 315 314
306 307 307 307 307 308 309 311 312 312 313 313 313 313 313 314 315 316 316 317 316 316 317 317 318 319 318 317 318 319 317 316 316 316 316 316 315 315 314 313 312 311
306 306 306 307 307 307 308 308 310 311 311 311 312 312 311 312 313 314 314 314 314 315 316 316 317 317 317 316 317 317 316 316 315 315 315 314 314 313 312 311 310 310
306 305 305 306 306 306 307 307 308 308 308 308 309 309 309 310 311 312 312 313 314 315 316 316 316 316 316 316 316 315 315 314 314 313 312 312 312 311 310 310 310 310
306 305 304 305 305 305 305 306 306 306 305 305 305 306 308 309 310 311 312 313 314 315 315 315 314 314 314 313 313 312 312 311 310 310 309 309 308 308 308 310 310 309
305 304 303 303 302 302 303 303 303 303 303 304 304 306 307 309 310 311 312 312 313 313 313 313 312 312 311 310 310 309 309 309 308 307 307 307 307 307 308 309 309 308
305 304 303 302 301 301 302 302 301 301 302 303 305 306 307 308 309 310 311 311 311 311 311 310 309 309 308 307 307 307 307 307 306 306 306 306 306 307 307 307 307 307
304 304 303 302 300 301 302 301 300 301 302 303 304 306 306 307 308 308 308 309 308 308 308 307 306 306 306 306 305 305 304 304 305 304 304 304 305 305 305 305 305 305
304 304 303 303 302 302 302 301 300 301 301 302 304 305 305 306 306 306 305 305 305 304 303 303 303 303 304 304 303 303 303 303 303 303 303 303 303 302 303 304 304 304
305 304 304 304 304 303 302 302 301 301 301 301 302 303 303 303 303 303 302 302 301 301 301 300 300 301 301 302 303 303 303 303 304 304 303 302 301 300 301 303 304 303
Wind_Speed
45 46 44 44 43 40 37 35 33 32 34 34 34 35 35 34 33 31 28 24 21 21 21 20 21 20 19 18 17 17 18 19 20 20 20 22 24 24 24 23 23 23
45 44 42 41 41 39 37 36 36 35 35 36 35 35 34 34 34 32 30 27 26 27 26 25 25 24 23 20 18 19 19 20 20 20 21 23 23 23 25 25 24 24
43 42 41 42 42 41 39 38 37 36 36 35 35 35 33 34 33 32 31 26 25 28 28 28 27 26 26 23 21 21 21 21 21 20 21 22 22 24 26 26 27 27
42 42 42 42 43 41 37 36 36 36 35 34 35 35 34 34 33 31 31 26 22 24 26 28 28 26 26 25 23 22 21 22 22 22 22 22 24 25 25 26 28 28
41 41 41 40 39 36 33 34 35 34 34 35 35 35 34 35 32 28 28 25 22 23 23 23 25 25 26 26 25 24 24 24 25 24 25 25 25 26 25 26 27 26
39 37 35 34 32 29 29 33 35 35 34 33 33 31 29 31 28 23 24 24 23 24 24 23 24 26 28 28 27 27 27 27 26 26 27 27 26 26 26 26 26 26
37 33 27 25 24 23 25 28 30 31 30 27 26 24 22 25 26 23 23 23 24 27 28 28 29 29 29 29 30 30 29 29 28 27 28 27 26 26 27 26 26 27
35 33 24 20 22 22 22 23 23 25 24 22 22 23 24 28 30 28 26 25 26 29 30 31 31 31 30 29 30 31 30 30 29 28 28 27 26 26 27 26 25 26
33 30 23 20 22 22 24 26 25 23 22 23 25 26 29 32 32 30 29 29 29 30 31 31 31 31 30 30 30 30 30 30 29 28 27 26 26 27 25 24 25 27
32 28 22 22 23 23 26 29 28 25 24 26 30 31 32 34 32 30 30 30 30 31 31 31 30 30 30 30 31 31 30 30 29 27 26 26 26 26 24 23 24 25
31 29 25 26 26 25 27 28 27 27 28 30 32 32 32 33 31 30 30 30 31 31 31 31 30 30 30 31 31 30 30 29 27 27 28 27 26 26 25 25 25 25
31 31 31 32 32 30 31 31 30 31 32 33 33 32 32 32 31 31 31 31 31 32 31 31 30 30 30 31 30 30 29 28 28 29 29 27 26 26 27 28 27 24
30 32 33 33 33 33 34 33 33 33 33 33 33 32 32 32 32 32 32 32 32 32 31 31 31 30 30 31 31 30 29 28 29 30 28 27 27 26 25 25 25 25
29 30 31 32 32 33 33 32 32 32 33 32 32 32 33 33 32 32 32 32 31 31 31 31 31 31 31 32 30 27 27 28 28 27 26 27 27 26 24 23 22 24
27 28 29 30 31 31 32 32 32 31 31 31 32 33 33 32 32 32 31 31 31 31 31 31 31 32 31 31 29 28 29 29 27 26 26 26 26 26 26 26 25 24
26 27 27 28 30 30 31 31 31 30 30 31 32 32 32 32 31 31 31 31 32 31 31 31 31 31 31 29 28 28 28 27 27 27 26 25 25 26 26 26 26 25
26 26 26 27 28 29 30 30 30 30 30 31 31 31 31 30 30 30 31 31 31 31 31 31 31 32 30 28 28 29 28 27 27 28 27 26 26 25 25 25 24 24
25 26 26 27 28 28 30 30 29 29 30 30 31 31 30 29 29 30 31 31 30 30 30 31 31 31 29 27 28 29 28 27 28 28 28 27 27 26 26 26 25 26
24 26 27 29 29 29 29 28 28 30 31 31 31 30 29 29 29 30 31 30 30 30 30 31 31 30 28 28 29 28 27 27 27 27 27 28 29 30 29 29 29 28
23 25 28 29 29 28 28 28 29 30 30 30 29 28 28 29 30 31 31 30 30 31 31 31 31 31 30 30 30 29 29 29 28 28 29 30 31 31 30 30 30 28
23 25 27 27 27 27 27 28 29 30 30 29 28 28 29 30 30 31 31 31 32 32 32 33 34 33 32 32 32 31 30 30 30 30 31 32 32 31 31 30 29 27
22 23 24 25 26 26 27 30 30 30 29 28 28 29 29 30 31 32 32 33 33 33 33 35 35 34 34 33 33 32 31 30 30 30 31 30 30 31 30 29 27 26
21 22 23 25 25 26 29 31 30 29 28 28 28 30 31 32 33 33 33 34 34 34 35 36 36 35 34 34 34 33 31 30 30 30 30 30 29 29 28 27 26 28
22 22 23 24 26 28 30 30 28 28 28 28 30 31 32 33 33 32 33 34 34 36 36 36 36 36 35 36 36 35 33 33 32 31 30 30 29 28 28 28 29 30
22 22 23 25 27 29 30 30 29 28 28 29 30 31 31 31 31 31 32 32 33 34 34 34 34 34 32 31 31 31 32 33 32 30 30 31 29 28 29 31 31 30
22 23 24 26 28 30 30 30 29 28 28 29 30 29 29 29 29 29 30 30 31 31 31 31 31 30 28 27 27 28 29 31 32 31 30 29 27 27 28 31 31 29
Wind_Direction
230 230 232 233 234 234 233 232 231 230 231 233 233 235 237 239 240 239 238 237 234 235 236 236 237 236 235 235 233 234 235 238 239 240 241 243 246 247 245 243 241 241
229 229 229 230 231 232 231 232 233 234 235 236 237 238 239 241 242 242 242 239 240 242 241 240 240 239 238 236 233 234 237 239 239 238 239 241 242 243 244 243 242 241
228 227 226 227 229 231 233 234 235 237 238 239 240 240 240 242 243 244 242 238 240 244 243 242 241 240 240 238 236 236 236 236 236 234 236 239 241 241 244 246 246 243
228 228 229 231 232 232 234 235 236 238 238 239 241 242 242 243 244 244 241 237 236 240 241 241 240 239 240 240 238 237 236 238 240 239 239 243 246 244 245 249 249 246
230 230 231 233 234 233 233 236 237 238 239 240 241 242 243 244 243 240 238 235 233 235 236 237 238 237 239 240 239 240 240 240 241 242 241 242 244 244 244 248 249 248
230 230 231 232 233 232 233 237 239 239 240 241 241 241 241 241 238 233 232 231 231 233 233 232 234 237 239 240 241 242 243 242 244 245 243 242 244 244 243 246 249 249
229 230 228 228 230 230 231 234 237 238 238 237 236 235 233 233 233 230 230 229 230 235 236 235 236 239 241 241 241 242 241 242 243 243 242 242 244 246 244 246 249 250
229 229 225 224 226 227 228 229 230 232 233 231 230 231 231 232 234 232 231 230 232 237 238 238 239 240 241 240 240 241 241 241 240 240 241 243 246 248 246 246 249 249
229 227 222 224 226 226 229 230 230 231 231 230 230 232 233 236 236 234 233 235 236 239 239 239 241 240 239 239 239 239 240 242 241 240 241 243 246 248 246 246 250 248
230 227 222 225 227 227 231 232 233 232 230 231 233 234 236 238 238 236 237 239 239 239 239 239 239 239 238 239 238 238 239 240 239 240 242 244 245 248 248 248 250 248
231 228 226 228 228 230 232 232 232 232 231 234 236 237 239 240 240 238 239 240 239 238 238 238 238 237 237 238 237 239 239 240 242 244 244 244 245 247 250 250 250 250
232 230 230 232 233 234 235 235 235 236 237 239 240 239 240 241 240 239 239 238 238 238 237 238 237 236 236 238 237 237 236 237 242 242 241 244 246 245 247 250 250 250
235 235 235 237 237 238 239 240 239 240 241 241 241 239 239 239 239 239 238 237 238 238 237 237 236 235 236 237 236 235 234 236 238 236 238 245 245 242 245 247 247 246
240 241 241 241 241 240 241 241 241 241 241 240 240 239 238 239 238 238 237 236 237 237 237 236 235 235 235 234 234 234 235 237 237 235 237 240 238 238 243 244 243 242
245 246 245 244 243 242 242 242 241 241 240 239 239 238 238 239 238 237 236 235 235 236 235 234 233 234 234 233 233 233 232 233 235 237 238 238 236 236 238 238 238 237
249 249 247 245 244 243 243 242 240 240 239 238 239 238 238 237 236 235 234 234 234 233 231 231 232 233 232 231 232 232 229 229 231 235 238 238 236 233 230 229 231 233
252 251 250 248 246 244 242 241 240 239 238 238 238 237 236 234 233 232 231 231 231 231 230 230 229 230 230 229 230 229 229 231 234 235 235 233 231 229 229 231 232 236
253 251 250 249 248 245 242 240 238 238 237 236 235 234 232 230 229 229 228 229 229 230 229 228 228 229 229 228 227 226 228 231 232 231 228 227 229 232 236 240 242 246
254 250 248 248 247 245 243 239 237 236 235 233 232 231 229 227 227 227 227 228 227 226 226 226 226 227 226 224 225 225 226 226 226 227 230 232 237 240 242 246 248 245
255 250 246 246 245 244 242 238 236 236 234 232 230 228 226 225 224 225 225 225 224 222 223 225 226 225 224 223 225 227 228 228 230 234 236 238 240 241 241 242 239 232
254 249 246 244 242 241 240 237 236 234 232 229 227 225 224 223 222 223 223 222 222 222 224 226 227 227 226 227 229 230 230 232 235 236 237 238 240 240 238 234 229 228
252 249 246 243 239 237 237 236 234 232 229 227 225 224 224 223 222 222 222 222 223 224 226 229 230 230 229 230 230 229 229 231 232 232 232 234 236 234 231 227 227 231
254 250 248 243 236 234 236 235 232 231 228 225 223 222 222 222 222 223 223 224 225 226 228 231 233 232 230 229 229 227 226 225 224 225 228 230 230 228 225 226 230 233
257 253 250 244 237 235 236 234 231 230 228 224 222 222 223 223 224 225 227 228 229 231 232 235 237 236 233 231 230 227 223 221 221 223 226 228 228 228 229 232 233 234
262 256 251 246 241 240 238 234 232 230 228 225 224 224 225 226 226 228 230 232 234 236 238 239 239 239 235 229 225 220 217 218 219 219 221 221 221 223 226 228 229 229
265 259 254 250 247 245 241 236 234 231 227 226 225 224 225 227 229 230 233 236 238 239 240 239 239 239 234 224 218 216 216 218 219 218 218 217 215 217 219 221 223 223